STARLINK-2031 (47648 NORAD) Tracking and Keplerian Element Data

This shows tracking and keplerian element data for the satellite.

Feedback or suggestion? Click here.




ElementValue
Catalog47648
NameSTARLINK-2031
Epoch Orbit177
Epoch Day105.91667824
Epoch Year2021
RAAN169.0806
Inclination53.0458
Eccentricity0.0002317
Argument of Perigee28.9467
Mean Anonmoly19.134
Mean Motion15.73197806
Decay Rate0.00022343
L11 47648U 21012AE 21105.91667824 .00022343 00000-0 16317-3 0 9992
L22 47648 53.0458 169.0806 0002317 28.9467 19.1340 15.73197806 1775

Live tracking and technical data element details for STARLINK-2031 (NORAD 47648). STARLINK-2031 can be tracked NOW for your location showing map with azimuth and elevation plus other details from your city location.

Track the satellite on the map from your city or location and see movement details for azimuth, elevation, latitude, longitude, range, height, and movement on the map or in text.







IsCatalogInMostPopularTable: catalog: 47648, numindb: 16
Update: records affected: 1



GetName: 47648 STARLINK-2031

Hit Count: updated at: Fri, 16 Apr 2021 11:14:49 GMT